Terug naar catalogus

LEMUR 2 ROUNDTRIPPER

ActiefWetenschapSSO
NORAD 62711·PAYLOAD·🇺🇸 United States

Gelanceerd Jan 14, 2025 vanaf Vandenberg Space Force Base

Loading…

Volgende Passages (komende 24 uur)

TLE

VersSource: Space-Track

Epoch: Sep 14, 2026, 11:39 UTC

1 62711U 25009DG  26257.48573392  .00006816  00000-0  48416-3 0  9993
2 62711  97.7203 340.0912 0003718 170.3824 189.7474 15.05027440 91053

Volg LEMUR 2 ROUNDTRIPPER in realtime met AllMySat

Download on the App Store